Regional Weather Roundup
Issued by NWS

Home | Current Version | Previous Version | Text Only | Print | Product List | Glossary On
Versions: 1 2 3 4 5 6 7 8 9 10 11 12 13 14 15 16 17 18 19 20 21 22 23 24 25 26 27 28 29 30 31 32 33 34 35 36 37 38 39 40 41 42 43 44 45 46 47 48 49 50
000
ASUS44 KFWD 240115
RWRTX
NORTH TEXAS HOURLY WEATHER ROUNDUP
NATIONAL WEATHER SERVICE FORT WORTH TX
800 PM CDT TUE AUG 23 2016

NOTE: "FAIR" INDICATES FEW OR NO CLOUDS BELOW 12,000 FEET WITH NO
SIGNIFICANT WEATHER AND/OR OBSTRUCTIONS TO VISIBILITY.

TXZ118-119-240200-
DALLAS/FORT WORTH METROPLEX

CITY           SKY/WX    TMP DP  RH WIND       PRES   REMARKS
DFW AIRPORT    PTCLDY    89  68  49 S16       30.01S HX  93
DALLAS LOVE    PTCLDY    90  70  51 S15       30.02S HX  95
FTW MEACHAM    CLEAR     90  67  46 S15G22    30.01R HX  93
DAL-EXECUTIVE  CLEAR     88  72  58 SE10G22   30.02S HX  94
FTW-ALLIANCE   PTCLDY    87  67  51 S12       30.01R HX  90
FTW-NAS-JRB    CLEAR     90  65  43 S15       30.01S HX  92
FTW-SPINKS     CLEAR     87  67  51 S9G16     30.04S
ARLINGTON      CLEAR     88  69  53 SE15G21   30.02S HX  92
GRAND PRAIRIE  CLEAR     88  66  48 SE12G17   30.03S HX  90
MESQUITE       CLEAR     84  72  65 SE8       30.04S
LANCASTER      CLEAR     87  73  61 SE5       30.04S HX  94
$$

TXZ091>094-102>105-117-120-121-131>134-240200-
NORTH CENTRAL TEXAS

CITY           SKY/WX    TMP DP  RH WIND       PRES   REMARKS
SHRMAN/DENISON CLEAR     87  72  59 S13G18    30.03R HX  93
GAINESVILLE      N/A     85  69  57 S10G17    30.04R
BOWIE          CLEAR     86  69  56 SE9       30.01S HX  90
BRIDGEPORT     CLEAR     87  69  56 S6        30.02S HX  91
DECATUR        CLEAR     86  66  50 S13G18    30.03S
DENTON         CLEAR     87  68  52 S15G22    30.01R HX  90
MCKINNEY       PTCLDY    86  72  62 S12       30.03S HX  92
GREENVILLE     CLEAR     84  70  61 S6        30.06R
ROCKWALL       CLEAR     86  72  62 SE10      30.04R HX  92
TERRELL        CLEAR     85  72  65 S8        30.05R HX  91
WAXAHACHIE     CLEAR     85  72  64 S8        30.05R HX  91
CLEBURNE       CLEAR     86  72  62 SE10      30.05S HX  92
GRANBURY       CLEAR     90  68  48 SE9       30.03R HX  94
$$

TXZ083>090-098>101-113>116-127>130-139>142-154-155-240200-
WESTERN NORTH TEXAS

CITY           SKY/WX    TMP DP  RH WIND       PRES   REMARKS
WICHITA FALLS  CLOUDY    87  69  54 S14       29.96S HX  91
WF-KICKAPOO    PTCLDY    89  67  48 SE12      29.98S HX  92
VERNON         MOCLDY    90  59  35 S8        29.97R
ABILENE        CLEAR     85  61  44 S10       30.02R
ABILENE-DYESS  CLEAR     88  63  42 S9        30.00R
CISCO          CLEAR     88  63  42 S13       30.04S
BRECKENRIDGE   CLEAR     89  61  38 S9        30.00R
GRAHAM         CLEAR     87  66  50 SE7       29.98S
MINERAL WELLS  CLEAR     86  66  51 S9        30.00S
STEPHENVILLE   CLEAR     86  64  46 S7        30.07R
COMANCHE       CLEAR     87  65  47 S9        30.04S
BROWNWOOD      CLEAR     86  63  45 SE12G20   30.03S
COLEMAN        CLEAR     87  58  37 S9        30.04R
$$

TXZ143>147-156>162-174-175-240200-
CENTRAL TEXAS

CITY           SKY/WX    TMP DP  RH WIND       PRES   REMARKS
WACO           CLEAR     88  70  55 S13       30.04S HX  93
WACO-MCGREGOR  CLEAR     87  70  56 S12       30.05S HX  92
HILLSBORO      CLEAR     86  68  55 SE10      30.04S
CORSICANA      CLEAR     86  72  62 SE9       30.06S HX  92
MEXIA          PTCLDY    85  73  69 SE7       30.06S HX  91
HEARNE         CLEAR     86  73  66 CALM      30.07R HX  93
CAMERON        CLEAR     86  71  60 S8        30.06S HX  91
TEMPLE         CLEAR     86  71  60 S12       30.06R HX  91
KILLEEN        CLEAR     85  69  59 SE13      30.06R
KILLEEN-SKYLRK PTCLDY    86  70  58 S9        30.06S HX  90
FORT HOOD      CLEAR     86  69  57 S9        30.04R HX  90
GATESVILLE     CLEAR     84  70  61 SE7       30.07R
HAMILTON       CLEAR     86  66  52 S10       30.06S
LAMPASAS       CLEAR     84  70  62 S9        30.06S
$$

TXZ095>097-106>112-122>126-135>138-148>153-164>167-240200-
EAST TEXAS

CITY           SKY/WX    TMP DP  RH WIND       PRES   REMARKS
PARIS          CLEAR     82  70  65 S8        30.06S
SULPHUR SPRNGS CLEAR     87  69  56 S6        30.08R HX  91
MOUNT PLEASANT CLEAR     83  73  72 SE5       30.08S
GILMER         CLOUDY    84  74  71 SE5       30.08R HX  92
TYLER          CLEAR     85  73  67 S6        30.07F HX  91
LONGVIEW       PTCLDY    79  76  90 S6        30.07F
MARSHALL       PTCLDY    79  73  79 SE3       30.11S
ATHENS         CLEAR     82  70  65 SE5       30.05S
PALESTINE      CLEAR     85  74  71 SE3       30.08S HX  92
JACKSONVILLE   CLEAR     83  76  80 S5        30.12R HX  92
HENDERSON      PTCLDY    81  74  80 S5        30.10S
CENTER         CLOUDY    83  79  87 SE3       30.11S HX  95
NACOGDOCHES    MOCLDY   N/A N/A N/A S5        30.08S
LUFKIN         MOCLDY    82  78  88 SE3       30.10R HX  91
$$

SUPPLEMENTAL OBSERVATIONS (CENTRAL)

CITY           SKY/WX    TMP DP  RH WIND       PRES   REMARKS
DENISON DAM      N/A     86  70  58 S8          N/A  HX  90
CADDO GRASSLND   N/A     84  68  58 S7G17       N/A
PAT MAYSE LAKE   N/A     84  72  65 SE10        N/A
GREENVILLE       N/A     84  70  61 S2G13       N/A
CEDAR HILL       N/A     86  68  54 SE8G17      N/A
ATHENS           N/A     86  73  66 S6          N/A  HX  93
LAKE LIMESTONE   N/A     84  73  70 SE2         N/A  HX  91
MCGREGOR         N/A     84  68  58 S9G18       N/A
TEMPLE           N/A     84  68  58 S7G16       N/A
$$

SUPPLEMENTAL OBSERVATIONS (WEST)

CITY           SKY/WX    TMP DP  RH WIND       PRES   REMARKS
POSSUM KINGDOM   N/A     88  64  45 SE8G18      N/A
LBJ GRASSLAND    N/A     84  68  58 SE8         N/A
GRANBURY         N/A     90  68  48 SE12        N/A  HX  93
COMANCHE         N/A     84  63  48 S13         N/A
HAMBY            N/A     88  59  37 S8G17       N/A
IVIE RESERVOIR   N/A     88  64  45 S10G18      N/A
COLORADO BEND    N/A     84  64  51 SW8G18      N/A
$$

SUPPLEMENTAL OBSERVATIONS (EAST)

CITY           SKY/WX    TMP DP  RH WIND       PRES   REMARKS
TEXARKANA        N/A     81  77  89 CALM        N/A
LINDEN           N/A     82  75  78 CALM        N/A
CADDO LAKE       N/A     81  77  89 CALM        N/A
LUFKIN           N/A     82  81  94 MISG        N/A  HX  95
N SABINE NF      N/A     82  77  83 MISG        N/A  HX  91
$$

SUPPLEMENTAL OBSERVATIONS ARE A COLLECTION OF AUTOMATED INSTRUMENTS
THAT ARE MAINTAINED BY A VARIETY OF FEDERAL AND STATE AGENCIES.
CERTAIN ELEMENTS...SUCH AS HUMIDITY VALUES AND SUSTAINED WIND
SPEEDS...MAY BE APPROXIMATED.





USA.gov is the U.S. government's official web portal to all federal, state and local government web resources and services.